Wetterdaten: Dienstag, 16.12.2014
Datum Zeit Temp. A. Feuchte A. Luftdruck Regen Wind Richtung Richtung Sonnenschein ET UV Solar Taupunkt Windchill Windben Empfang
16.12.2014 00:00 2,4 C 81 % 1013,5 hPa 0,0 l/m 0,0 km/h (0 Bft) S-SW 200 0 min 0,000 mm 0,0 UV-I 0 W/m -0,5 C 2,4 C 0,0 km/h (0 Bft) 0,00 %
16.12.2014 01:00 2,1 C 81 % 1012,8 hPa 0,0 l/m 0,0 km/h (0 Bft) S-SW 200 0 min 0,000 mm 0,0 UV-I 0 W/m -0,8 C 2,1 C 0,0 km/h (0 Bft) 0,00 %
16.12.2014 02:00 1,8 C 82 % 1012,6 hPa 0,0 l/m 0,0 km/h (0 Bft) S 180 0 min 0,000 mm 0,0 UV-I 0 W/m -0,9 C 1,8 C 0,0 km/h (0 Bft) 0,00 %
16.12.2014 03:00 1,6 C 82 % 1011,9 hPa 0,0 l/m 0,0 km/h (0 Bft) SW 220 0 min 0,000 mm 0,0 UV-I 0 W/m -1,1 C 1,6 C 0,0 km/h (0 Bft) 0,00 %
16.12.2014 04:00 1,5 C 82 % 1011,5 hPa 0,0 l/m 0,0 km/h (0 Bft) S 180 0 min 0,000 mm 0,0 UV-I 0 W/m -1,2 C 1,5 C 0,0 km/h (0 Bft) 0,00 %
16.12.2014 05:00 1,3 C 83 % 1011,2 hPa 0,0 l/m 0,0 km/h (0 Bft) S-SW 200 0 min 0,000 mm 0,0 UV-I 0 W/m -1,3 C 1,3 C 0,0 km/h (0 Bft) 0,00 %
16.12.2014 06:00 0,7 C 83 % 1010,7 hPa 0,0 l/m 0,0 km/h (0 Bft) S 180 0 min 0,000 mm 0,0 UV-I 0 W/m -1,8 C 0,7 C 0,0 km/h (0 Bft) 0,00 %
16.12.2014 06:30 0,3 C 83 % 1010,7 hPa 0,0 l/m 0,0 km/h (0 Bft) S 180 0 min 0,000 mm 0,0 UV-I 0 W/m -2,2 C 0,3 C 0,0 km/h (0 Bft) 0,00 %
16.12.2014 07:00 0,8 C 84 % 1010,6 hPa 0,0 l/m 0,0 km/h (0 Bft) S 180 0 min 0,000 mm 0,0 UV-I 0 W/m -1,6 C 0,8 C 0,0 km/h (0 Bft) 0,00 %
16.12.2014 08:00 0,8 C 83 % 1010,6 hPa 0,0 l/m 0,0 km/h (0 Bft) S 180 0 min 0,000 mm 0,0 UV-I 2 W/m -1,8 C 0,8 C 0,0 km/h (0 Bft) 0,00 %
16.12.2014 09:00 1,0 C 83 % 1011,0 hPa 0,0 l/m 0,0 km/h (0 Bft) S-SW 200 0 min 0,000 mm 1,0 UV-I 40 W/m -1,6 C 1,0 C 0,0 km/h (0 Bft) 0,00 %
16.12.2014 10:00 2,4 C 87 % 1010,8 hPa 0,0 l/m 0,0 km/h (0 Bft) S-SW 200 0 min 0,000 mm 1,0 UV-I 87 W/m 0,5 C 2,4 C 0,0 km/h (0 Bft) 0,00 %
16.12.2014 11:00 3,0 C 87 % 1010,3 hPa 0,0 l/m 0,0 km/h (0 Bft) S-SW 210 0 min 0,000 mm 1,0 UV-I 76 W/m 1,1 C 3,0 C 0,0 km/h (0 Bft) 0,00 %
16.12.2014 12:00 3,5 C 84 % 1010,2 hPa 0,0 l/m 0,0 km/h (0 Bft) SW 214 0 min 0,000 mm 0,0 UV-I 28 W/m 1,1 C 3,5 C 0,0 km/h (0 Bft) 0,00 %
16.12.2014 13:00 4,0 C 84 % 1009,5 hPa 0,0 l/m 0,0 km/h (0 Bft) SW 220 0 min 0,000 mm 1,0 UV-I 45 W/m 1,5 C 4,0 C 0,0 km/h (0 Bft) 0,00 %
16.12.2014 14:00 4,4 C 82 % 1009,0 hPa 0,0 l/m 0,0 km/h (0 Bft) S-SW 200 0 min 0,000 mm 1,0 UV-I 72 W/m 1,6 C 4,4 C 0,0 km/h (0 Bft) 0,00 %
16.12.2014 15:00 4,4 C 83 % 1008,3 hPa 0,0 l/m 0,0 km/h (0 Bft) S 180 0 min 0,000 mm 0,0 UV-I 24 W/m 1,8 C 4,4 C 0,0 km/h (0 Bft) 0,00 %
16.12.2014 16:00 3,7 C 85 % 1008,4 hPa 0,0 l/m 0,0 km/h (0 Bft) S 180 0 min 0,000 mm 0,0 UV-I 0 W/m 1,4 C 3,7 C 0,0 km/h (0 Bft) 0,00 %
16.12.2014 17:00 3,6 C 85 % 1008,8 hPa 0,0 l/m 0,0 km/h (0 Bft) S-SW 200 0 min 0,000 mm 0,0 UV-I 0 W/m 1,3 C 3,6 C 0,0 km/h (0 Bft) 0,00 %
16.12.2014 18:00 3,5 C 86 % 1008,8 hPa 0,3 l/m 0,0 km/h (0 Bft) S-SW 210 0 min 0,000 mm 0,0 UV-I 0 W/m 1,4 C 3,5 C 0,0 km/h (0 Bft) 0,00 %
16.12.2014 19:00 3,6 C 86 % 1009,1 hPa 0,6 l/m 0,0 km/h (0 Bft) S-SW 210 0 min 0,000 mm 0,0 UV-I 0 W/m 1,5 C 3,6 C 0,0 km/h (0 Bft) 0,00 %
16.12.2014 20:00 3,9 C 87 % 1009,1 hPa 0,6 l/m 0,0 km/h (0 Bft) S-SW 210 0 min 0,000 mm 0,0 UV-I 0 W/m 1,9 C 3,9 C 0,0 km/h (0 Bft) 0,00 %
16.12.2014 21:00 4,4 C 86 % 1009,0 hPa 0,9 l/m 0,0 km/h (0 Bft) SW 230 0 min 0,000 mm 0,0 UV-I 0 W/m 2,3 C 4,4 C 0,0 km/h (0 Bft) 0,00 %
16.12.2014 22:00 4,7 C 87 % 1009,3 hPa 0,9 l/m 0,3 km/h (0 Bft) SW 234 0 min 0,000 mm 0,0 UV-I 0 W/m 2,7 C 4,7 C 4,0 km/h (1 Bft) 0,00 %
16.12.2014 23:00 4,5 C 87 % 1010,0 hPa 1,5 l/m 0,3 km/h (0 Bft) NW 321 0 min 0,000 mm 0,0 UV-I 0 W/m 2,5 C 4,5 C 4,0 km/h (1 Bft) 0,00 %
_ Min-Zeit 06:30 00:00 15:00 - 00:00 - - - - - - 06:30 06:30 00:00 00:00
Minimum _ 0,3 C 81 % 1008,3 hPa - 0,0 km/h (0 Bft) - - - - - - -2,2 C 0,3 C 0,0 km/h (0 Bft) 0,00 %
_ Max-Zeit 22:00 10:00 00:00 23:00 22:00 - - 00:00 00:00 09:00 10:00 22:00 22:00 22:00 00:00
Maximum _ 4,7 C 87 % 1013,5 hPa 1,5 l/m 0,3 km/h
SW (0 Bft)
- - 0 min 0,000 mm 1,0 UV-I 87 W/m 2,7 C 4,7 C 4,0 km/h
SW (1 Bft)
0,00 %
Durchschnitt _ 2,8 C 84 % 1010,2 hPa #4,8 l/m 0,0 km/h (0 Bft) N - #0 min. #0,000 mm 1,0 UV-I 47 W/m 0,4 C 2,8 C 0,3 km/h (0 Bft) 0,00 %